Regional Weather Roundup
Issued by NWS

Home | Current Version | Previous Version | Graphics & Text | Print | Product List | Glossary On
Versions: 1 2 3 4 5 6 7 8 9 10 11 12 13 14 15 16 17 18 19 20 21 22 23 24 25 26 27 28 29 30 31 32 33 34 35 36 37 38 39 40 41 42 43 44 45 46 47 48 49 50
507
ASUS44 KJAN 291103
RWRMS

MISSISSIPPI HOURLY WEATHER ROUNDUP
NATIONAL WEATHER SERVICE JACKSON MS
600 AM CDT TUE JUL 29 2014

NOTE: "FAIR: INDICATES FEW OR NO CLOUDS BELOW 12,000 FEET WITH NO
SIGNIFICANT WEATHER AND/OR OBSTRUCTIONS TO VISIBILITY.

MSZ001>002-007>008-010>013-018>021-025>028-034>036-291200-
NORTHWEST MISSISSIPPI

CITY           SKY/WX    TMP DP  RH WIND       PRES   REMARKS
CLARKSDALE     FAIR      68  68 100 N3        30.08R
CLEVELAND      PTSUNNY   67  67 100 N3        30.05R
GREENWOOD      PTCLDY    65  63  93 CALM      30.04S
GREENVILLE     CLEAR     65  64  97 N3        30.05R
GRENADA        FAIR      64  63  94 CALM      30.06R
OLIVE BRANCH   MOCLDY    66  64  94 N9        30.09R
OXFORD         FAIR      66  61  82 CALM      30.09R
TUNICA         MOSUNNY   68  63  83 N6        30.09R
$$

MSZ003>006-009-014>017-022>024-029>033-037>039-291200-
NORTHEAST MISSISSIPPI

CITY           SKY/WX    TMP DP  RH WIND       PRES   REMARKS
BELMONT        FAIR      63  61  93 CALM      30.06R
COLUMBUS AFB   CLEAR     65  64  95 NW5       30.04R
CORINTH        FAIR      63  59  88 NW3       30.07R
GOLDN TRIANGLE PTCLDY    64  61  88 N3        30.04R
STARKVILLE     FAIR      63  61  94 CALM      30.04R
TUPELO         CLEAR     65  61  87 NE5       30.05R
$$

MSZ040-058-291200-
CENTRAL MISSISSIPPI

CITY           SKY/WX    TMP DP  RH WIND       PRES   REMARKS
JACKSON INTL   CLEAR     65  64  97 CALM      30.05R
JACKSON HAWKNS CLEAR     67  63  87 NW6       30.06R
MERIDIAN KEY   CLEAR     65  63  93 CALM      30.02R
MERIDIAN NAS   CLEAR     66  62  87 NW3       30.02R
RAYMOND        FAIR      64  59  82 CALM      30.05R
VICKSBURG      CLEAR     62  60  93 CALM      30.06R
$$

MSZ059>079-291200-
SOUTH MISSISSIPPI

CITY           SKY/WX    TMP DP  RH WIND       PRES   REMARKS
BROOKHAVEN     FAIR      64  64 100 CALM      30.08R
COLUMBIA       FAIR      64  64 100 CALM      30.04R FOG
HATTIESBURG    PTCLDY    68  66  93 NW3       30.04R
MCCOMB         PTCLDY    68  65  90 CALM      30.06R
NATCHEZ        MOCLDY    66  64  94 CALM      30.07R
PINE BELT      PTCLDY    68  63  83 NW3       30.05R
$$

MSZ080>082-291200-
COASTAL MISSISSIPPI

CITY           SKY/WX    TMP DP  RH WIND       PRES   REMARKS
BILOXI         CLEAR     75  67  78 VRB5      30.01R
PASCAGOULA     CLEAR     71  68  90 CALM      30.00R
GULFPORT       CLEAR     76  67  73 NW5       30.01R
$$



USA.gov is the U.S. government's official web portal to all federal, state and local government web resources and services.